Find Starlink 37351

NORAD ID: 68743 Int'l Des: 2026-082 Owner: SPXS Country: US Constellation: starlink operational
LEOCIRCULARRETROGRADE

リアルタイム位置

3D地球を読み込み中...

Starlink 37351について

説明を読み込み中...

次回通過

Passes for default location (London). Set your location on the main map for personalized predictions.

高度履歴

Loading altitude history...

軌道要素

1 68743C 26082Q 26105.46368056 .00379610 00000+0 44242-3 0 1051
2 68743 97.2878 326.8909 0010824 269.6298 15.9579 16.08467392 18
Epoch: Apr 15, 2026 • Age: 22 hours

現在のステータス

高度 264.8 km
速度 7.75 km/s
衛星直下点 57.83°N, 177.57°W
打ち上げ日 Apr 15, 2026
運用期間 1 days
タイプ internet

技術仕様

分類 Payload
質量 575.00 kg
乾燥質量 530.00 kg
総質量 575.00 kg
長さ 0.30 m
直径 4.10 m
スパン 29.00 m
形状 Box + pan
製造者 SPXS
バスタイプ Starlink V2MO
フェーズステータス In Orbit
所有者/国 SPXS/US

Most Searched